www.pogodaiklimat.ru

Погода и климат >> Архив погоды >> Финляндия >> Хельсинки


АРХИВ ПОГОДЫ в Хельсинки

Время (UTC), дата Ветер
(напр.,м/с)
 
Видим.   Явления Облачность Т
(С)
Тd
(С)
f
(%)
Тe
(С)
Тes
(С)
Комфортность P
(гПа)
Po
(гПа)
Тmin
(С)
Tmax
(С)
R
(мм)
R24
(мм)
S
(см)
19 8.09 В 6-8
{8}
50 км 10/10
[]
+13.8 +13.0 95 +12 +12 тепло 1024.6 1018.1
20 8.09 В 6 50 км 10/10
[]
+14.0 +13.2 95 +12 +12 тепло 1024.4 1017.9
21 8.09 В 5-6
{8}
50 км 10/0
[Ac As]
+14.0 +13.6 97 +12 +12 тепло 1024.0 1017.5
22 8.09 В 4 50 км 10/10
[]
+13.9 +13.7 99 +12 +12 тепло 1023.7 1017.2
23 8.09 СВ 5 50 км 8/1
[]
+13.7 +13.7 100 +12 +12 тепло 1023.2 1016.7
00 9.09 В 5-7
{8}
50 км 6/0
[Ac As]
+14.0 +14.0 100 +12 +12 тепло 1022.6 1016.2
01 9.09 В 4 50 км 9/9
[]
+14.1 +14.1 100 +13 +13 тепло 1022.6 1016.2
02 9.09 В 5 50 км 6/6
[]
+14.5 +14.5 100 +13 +13 тепло 1021.9 1015.4
03 9.09 В 5-7
{8}
50 км в посл. час ливневой дождь 9/1 1500 м
[Ac As]
+15.0 +15.0 100 +13 +13 тепло 1021.4 1015.0
04 9.09 В 4 40 км 9/9 200 м
[]
+14.7 +14.7 100 +13 +13 тепло 1021.2 1014.7
05 9.09 В 4-6
{6}
30 км 9/0 200 м
[]
+15.2 +15.2 100 +14 +14 тепло 1021.0 1014.5
06 9.09 В 5-7
{7}
30 км {ливн. осадки} 10/9 200 м
[St]
+16.0 +16.0 100 +15 +15 тепло 1020.6 1014.2 +13.6 +16.0 0.0
07 9.09 ЮВ 6 20 км 10/10 200 м
[]
+16.3 +16.3 100 +15 +15 тепло 1020.5 1014.1
08 9.09 ЮВ 6-8
{9}
19 км 10/0 200 м
[]
+16.5 +16.5 100 +15 +15 тепло 1020.6 1014.2
09 9.09 Ю 3-5
{8}
8000 м гроза, ливневой дождь 10/0 200 м
[]
+16.4 +16.4 100 +16 +19 тепло 1021.2 1014.8 0.7
10 9.09 Ю 2 5000 м ливневой дождь 10/10 100 м
[]
+16.3 +16.3 100 +16 +16 тепло 1021.2 1014.8
11 9.09 Ю 3 10 км слаб. ливневой дождь 10/10 200 м
[]
+16.6 +16.6 100 +16 +16 тепло 1021.1 1014.7
12 9.09 ЮВ 3-4
{4}
20 км {гроза, ливн. осадки} 9/9 100 м
[]
+17.7 +17.0 96 +18 +18 тепло 1021.0 1014.6
13 9.09 Ю 4 45 км 10/10 300 м
[]
+17.7 +16.2 91 +17 +17 тепло 1020.9 1014.5
14 9.09 ЮВ 3 40 км 9/9 600 м
[]
+18.0 +16.8 93 +18 +18 тепло 1020.8 1014.5
15 9.09 ЮВ 3-4
{4}
40 км 9/0 300 м
[]
+18.1 +17.4 96 +18 +19 тепло 1020.8 1014.4
16 9.09 В 2 35 км 5/5 300 м
[]
+17.8 +17.3 97 +18 +18 тепло 1021.1 1014.7
17 9.09 В 2 20 км 1/1 1000 м
[]
+16.5 +16.5 100 +17 +17 тепло 1021.4 1015.0
18 9.09 В 3-4
{4}
20 км местами туман поземный 1/1 600 м
[Sc Ci fib]
+15.3 +15.3 100 +15 +15 тепло 1021.8 1015.4 +15.2 +18.3 10
19 9.09 В 2 500 м туман ясно +14.5 +14.5 100 +14 +14 тепло 1022.0 1015.5
20 9.09 В 4 3200 м в посл. час туман 10/10 50 м
[]
+14.9 +14.9 100 +14 +14 тепло 1022.0 1015.5
21 9.09 В 4-5
{5}
4000 м дымка {туман} 9/0 50 м
[]
+15.1 +15.1 100 +14 +14 тепло 1022.0 1015.5
22 9.09 В 4 2500 м дымка 9/9 50 м
[]
+15.3 +15.3 100 +14 +14 тепло 1021.7 1015.2
23 9.09 СВ 4 3300 м слаб. дождь 6/5 1000 м
[]
+15.2 +15.2 100 +14 +14 тепло 1021.5 1015.0
00 10.09 В 4-6
{6}
5000 м дымка {ливн. осадки, туман} 9/1 50 м
[Ac As]
+15.1 +15.1 100 +14 +14 тепло 1021.1 1014.7
01 10.09 СВ 4-4
{5}
4700 м дымка 5/1 100 м
[]
+15.1 +15.1 100 +14 +14 тепло 1021.0 1014.5
02 10.09 СВ 4-5
{6}
1900 м дымка 10/0 50 м
[]
+15.2 +15.2 100 +14 +14 тепло 1020.4 1014.0
03 10.09 СВ 4-5
{6}
400 м туман ?/? +15.3 +15.3 100 +14 +14 тепло 1020.4 1014.0
04 10.09 СВ 3 300 м туман ?/? +15.4 +15.4 100 +15 +15 тепло 1020.7 1014.2
05 10.09 В 4-6
{6}
600 м туман ?/? +15.5 +15.5 100 +14 +14 тепло 1020.4 1014.0
06 10.09 В 4-7
{7}
2600 м в посл. час туман 9/9 50 м
[]
+15.6 +15.6 100 +15 +15 тепло 1020.4 1014.0 +14.2 +15.7 0.1
07 10.09 СВ 5 9000 м дымка 9/9 50 м
[]
+16.4 +16.4 100 +15 +16 тепло 1020.1 1013.7
08 10.09 В 4 15 км 9/9 100 м
[]
+17.4 +17.4 100 +17 +17 тепло 1020.4 1014.0
09 10.09 В 4-6
{6}
25 км {туман} 3/0 200 м
[Ac trans]
+19.2 +17.2 88 +21 +24 комфорт 1020.3 1013.9
10 10.09 В 5-6
{7}
30 км ясно +20.8 +18.3 86 +25 +28 комфорт 1019.9 1013.6
11 10.09 В 6 35 км ясно +23.3 +15.6 62 +28 +30 душно 1019.8 1013.5
12 10.09 ЮВ 6-8
{8}
30 км {туман} 4/0
[Ci fib]
+23.2 +15.1 60 +27 +29 душно 1019.3 1013.0
13 10.09 ЮВ 8 30 км ясно +22.5 +15.2 63 +26 +27 жарко 1019.1 1012.9
14 10.09 ЮВ 7-9
{10}
40 км ясно +23.2 +14.7 59 +27 +28 душно 1018.9 1012.6
15 10.09 ЮВ 5-8
{9}
30 км 6/0
[Ci sp]
+22.0 +14.4 62 +25 +26 комфорт 1018.7 1012.4
16 10.09 ЮВ 6 45 км ясно +21.4 +13.4 60 +24 +24 комфорт 1018.6 1012.3
17 10.09 ЮВ 5 45 км ясно +20.2 +13.8 67 +22 +22 комфорт 1018.9 1012.5
18 10.09 ЮВ 5-6
{6}
40 км 8/0
[Ci sp]
+19.9 +13.7 67 +22 +22 комфорт 1018.7 1012.4 +15.6 +23.3
19 10.09 ЮВ 5 50 км 4/4
[]
+19.8 +13.2 66 +21 +21 комфорт 1018.6 1012.2
20 10.09 Ю 5-8
{10}
50 км 1/0
[]
+19.8 +13.4 67 +21 +21 комфорт 1018.8 1012.5
21 10.09 ЮВ 3-4
{6}
40 км 9/0 2000 м
[Ac As]
+18.1 +13.7 75 +18 +18 тепло 1018.5 1012.1
22 10.09 В 4-5
{5}
30 км слаб. ливневой дождь 9/0
[]
+16.8 +15.3 91 +16 +16 тепло 1018.0 1011.6
23 10.09 ЮВ 4 45 км 9/9
[]
+17.4 +14.6 84 +17 +17 тепло 1017.8 1011.4
00 11.09 Ю 5-7
{7}
50 км {дождь} 4/0
[Ac trans]
+17.7 +12.5 72 +17 +17 тепло 1017.5 1011.2
01 11.09 ЮВ 4 50 км ясно +17.4 +12.3 72 +17 +17 тепло 1017.4 1011.0
02 11.09 Ю 5 50 км ясно +17.0 +11.9 72 +16 +16 тепло 1016.9 1010.5
03 11.09 Ю 6-9
{9}
50 км 3/0
[Ac trans Ci sp]
+16.4 +11.8 74 +15 +15 тепло 1016.6 1010.2
04 11.09 Ю 6 50 км ясно +15.6 +11.5 77 +14 +14 тепло 1016.4 1010.0
05 11.09 Ю 6 50 км ясно +15.6 +11.9 79 +14 +14 тепло 1016.0 1009.6
06 11.09 Ю 9-13
{13}
50 км ясно +16.1 +11.4 74 +14 +14 тепло 1015.6 1009.3 +15.4 +20.4
07 11.09 Ю 9-12
{13}
50 км ясно +16.5 +11.2 71 +15 +15 тепло 1015.4 1009.0
08 11.09 Ю 8 50 км 1/1
[]
+16.6 +10.5 67 +15 +16 тепло 1015.0 1008.6
09 11.09 Ю 7-10
{15}
20 км слаб. дождь 9/9 600 м
[]
+14.7 +12.4 86 +13 +13 тепло 1014.8 1008.4 0.2
10 11.09 Ю 8 11 км слаб. ливневой дождь 10/10 600 м
[]
+14.3 +13.4 94 +12 +12 по сезону 1014.6 1008.1
11 11.09 Ю 9 50 км в посл. час морось 10/10 300 м
[]
+14.7 +13.9 95 +12 +12 по сезону 1014.6 1008.1
12 11.09 Ю 9-13
{14}
40 км {дождь} 10/0 300 м
[]
+15.1 +14.5 96 +13 +13 по сезону 1014.1 1007.7
13 11.09 Ю 9 50 км в посл. час морось 9/9 300 м
[]
+15.6 +14.5 93 +14 +14 тепло 1013.8 1007.4
14 11.09 Ю 8 14 км слаб. ливневой дождь 10/10 200 м
[]
+15.1 +15.1 100 +13 +13 тепло 1013.3 1006.8
15 11.09 Ю 10-13
{15}
20 км слаб. ливневой дождь 10/0 300 м
[]
+15.9 +15.7 99 +14 +14 тепло 1012.4 1006.0 2
16 11.09 ЮЗ 9 1800 м сильн. ливневой дождь 10/10 200 м
[]
+15.1 +15.1 100 +13 +13 тепло 1012.7 1006.3
17 11.09 ЮЗ 7-11
{13}
40 км 9/1 300 м
[]
+15.6 +15.6 100 +14 +14 тепло 1013.1 1006.7 0.7
18 11.09 Ю 5-7
{10}
29 км 9/4 300 м
[]
+15.7 +15.7 100 +14 +14 тепло 1013.0 1006.7 +14.2 +17.1 20
19 11.09 ЮЗ 6-8
{8}
26 км в посл. час дождь 9/0 200 м
[]
+15.7 +15.7 100 +14 +14 тепло 1013.3 1007.0 1
20 11.09 ЮЗ 6-9
{10}
35 км 9/9 300 м
[]
+15.6 +15.6 100 +14 +14 тепло 1013.5 1007.1
21 11.09 ЮЗ 8-12
{12}
40 км {ливн. осадки} 9/4 300 м
[Ac As]
+15.5 +15.4 99 +14 +14 тепло 1013.7 1007.3
22 11.09 ЮЗ 7 50 км 9/9 600 м
[]
+15.0 +14.2 95 +13 +13 тепло 1014.5 1008.1
23 11.09 ЮЗ 6-8
{10}
40 км 3/0 300 м
[]
+14.7 +14.3 97 +13 +13 тепло 1014.6 1008.2
00 12.09 ЮЗ 7-10
{10}
50 км {ливн. осадки} 8/0 300 м
[Ci fib]
+14.8 +14.6 99 +13 +13 тепло 1014.6 1008.2
01 12.09 ЮЗ 7-11
{11}
50 км 8/8 300 м
[]
+14.9 +14.0 94 +13 +13 тепло 1014.5 1008.0
02 12.09 Ю 7-11
{11}
40 км 9/9 300 м
[]
+14.8 +14.6 99 +13 +13 тепло 1014.1 1007.7
03 12.09 Ю 6-8
{9}
50 км в посл. час дождь 9/9 300 м
[]
+14.8 +14.4 97 +13 +13 тепло 1013.6 1007.2
04 12.09 Ю 9 13 км дождь 10/10 300 м
[]
+14.3 +14.3 100 +12 +12 тепло 1013.1 1006.7
05 12.09 Ю 11-14
{15}
50 км 9/8 300 м
[]
+15.2 +14.5 96 +13 +13 тепло 1012.9 1006.5
06 12.09 Ю 11-18
{18}
7000 м слаб. ливневой дождь 9/9 300 м
[]
+14.7 +14.4 98 +12 +12 тепло 1013.1 1006.7 +14.3 +16.0 2
07 12.09 Ю 11 12 км слаб. ливневой дождь 10/10 300 м
[]
+14.5 +14.5 100 +12 +12 тепло 1012.4 1006.0
08 12.09 Ю 12 21 км слаб. ливневой дождь 9/8 300 м
[]
+14.5 +13.7 95 +11 +11 по сезону 1012.1 1005.7
09 12.09 Ю 11-16
{16}
8000 м слаб. дождь {морось} 10/0 200 м
[]
+14.1 +14.1 100 +11 +11 по сезону 1011.7 1005.3 0.5
10 12.09 ЮЗ 10 18 км морось 10/10 200 м
[]
+14.5 +14.5 100 +12 +12 по сезону 1011.6 1005.2
11 12.09 ЮЗ 7 50 км в посл. час дождь 9/9 300 м
[]
+15.2 +15.2 100 +13 +13 по сезону 1011.6 1005.2
12 12.09 ЮЗ 9-13
{13}
40 км {ливн. осадки, дождь} 8/0 300 м
[Ci sp]
+16.8 +13.3 80 +15 +16 тепло 1011.7 1005.3
13 12.09 ЮЗ 11 45 км 5/5 600 м
[]
+16.4 +10.6 69 +14 +14 тепло 1011.6 1005.3
14 12.09 ЮЗ 8-13
{14}
45 км 9/0 600 м
[]
+16.0 +11.7 76 +14 +14 тепло 1011.8 1005.5
15 12.09 ЮЗ 9-12
{13}
40 км 6/0 600 м
[Ci fib]
+16.2 +11.0 71 +14 +15 тепло 1012.2 1005.8
16 12.09 ЮЗ 7 45 км ясно +15.2 +11.9 81 +13 +13 тепло 1012.5 1006.1
17 12.09 ЮЗ 6-9
{11}
45 км 4/0 600 м
[]
+14.4 +12.4 88 +12 +12 тепло 1012.8 1006.3
18 12.09 ЮЗ 5 40 км 1/1 1500 м
[Sc diur, vesp Ci fib]
+13.6 +12.6 94 +12 +12 тепло 1013.0 1006.6 +13.6 +17.3 3
19 12.09 ЮЗ 5 30 км ясно +13.5 +12.8 96 +11 +11 тепло 1012.8 1006.4
20 12.09 ЮЗ 5 35 км ясно +13.1 +13.0 99 +11 +11 тепло 1012.6 1006.2
21 12.09 ЮЗ 5-6
{7}
40 км 3/0 1000 м
[Ac trans Ci fib]
+13.3 +13.3 100 +11 +11 тепло 1012.1 1005.7
22 12.09 ЮЗ 5 30 км 9/9 1500 м
[]
+13.4 +13.4 100 +11 +11 тепло 1011.7 1005.3
23 12.09 ЮЗ 5 40 км 9/9 1000 м
[]
+13.8 +13.0 95 +12 +12 тепло 1011.5 1005.0
00 13.09 ЮЗ 5-6
{7}
40 км 9/0 1500 м
[Ac As]
+13.9 +12.8 93 +12 +12 тепло 1010.9 1004.5
01 13.09 ЮЗ 5 45 км 9/8 2000 м
[]
+13.8 +12.8 94 +12 +12 тепло 1010.8 1004.4
02 13.09 ЮЗ 5-7
{8}
50 км 9/1 1500 м
[]
+13.7 +12.2 91 +12 +12 тепло 1010.1 1003.7
03 13.09 ЮЗ 5-8
{8}
40 км 9/0 1000 м
[Ac As]
+13.1 +11.8 92 +11 +11 тепло 1009.6 1003.2
04 13.09 ЮЗ 6 45 км 10/10
[]
+13.2 +11.8 91 +11 +11 тепло 1009.2 1002.8
05 13.09 ЮЗ 5 40 км в посл. час морось 5/5
[]
+13.3 +12.0 92 +11 +11 тепло 1009.1 1002.6
06 13.09 ЮЗ 5-7
{7}
35 км 1/1
[]
+14.3 +12.6 90 +13 +13 тепло 1009.0 1002.6 +12.9 +14.4
07 13.09 ЮЗ 5-7
{8}
40 км 1/1 300 м
[]
+14.5 +12.8 90 +13 +14 тепло 1008.6 1002.3
08 13.09 З 7-11
{11}
45 км 9/9 300 м
[]
+14.9 +11.9 82 +13 +13 тепло 1008.3 1001.9
09 13.09 З 5-6
{10}
40 км слаб. ливневой дождь {гроза} 9/9 100 м
[]
+12.4 +11.0 91 +10 +10 по сезону 1008.6 1002.1
10 13.09 З 5 15 км ливневой дождь 10/10 1500 м
[]
+11.7 +11.6 99 +9 +9 по сезону 1008.6 1002.2
11 13.09 ЮЗ 3 50 км слаб. морось 9/9 1500 м
[]
+11.9 +11.9 100 +10 +11 по сезону 1008.5 1002.0
12 13.09 З 3-4
{5}
20 км слаб. ливневой дождь {гроза} 10/3 100 м
[As op]
+11.8 +11.8 100 +10 +11 прохладно 1008.5 1002.0 0.1
13 13.09 З 4 50 км в посл. час дождь 6/5 100 м
[]
+12.8 +12.8 100 +11 +12 тепло 1008.5 1002.1
14 13.09 З 6 50 км 9/9 300 м
[]
+13.7 +12.1 90 +11 +12 по сезону 1008.5 1002.1
15 13.09 З 5-7
{12}
50 км {ливн. осадки} 5/0 600 м
[Ac As Ci sp]
+12.7 +10.6 87 +10 +11 по сезону 1008.9 1002.4 0.3
16 13.09 СЗ 7 50 км ясно +12.6 +9.9 84 +10 +10 тепло 1009.3 1002.8
17 13.09 З 5 50 км ясно +11.2 +10.2 94 +8 +8 по сезону 1010.0 1003.5
18 13.09 З 6-8
{9}
50 км {ливн. осадки, дождь} 1/0 2000 м
[Ac As Ci fib]
+10.4 +8.9 90 +7 +7 по сезону 1010.8 1004.3 +10.4 +15.4 2
19 13.09 З 5-6
{8}
50 км ясно +9.7 +8.3 91 +6 +6 по сезону 1011.1 1004.6
20 13.09 З 4-7
{7}
50 км ясно +9.2 +7.9 92 +6 +6 по сезону 1011.2 1004.7
21 13.09 З 5-6
{6}
50 км 1/0 1000 м
[Ci fib]
+8.9 +7.4 90 +5 +5 прохладно 1011.6 1005.1
22 13.09 З 5 50 км 1/1 1000 м
[]
+8.9 +7.2 89 +5 +5 тепло 1011.9 1005.3
23 13.09 З 6 50 км ясно +9.1 +7.1 87 +5 +5 по сезону 1012.2 1005.7
00 14.09 З 5-7
{7}
50 км ясно +8.5 +7.1 91 +5 +5 по сезону 1012.7 1006.2
01 14.09 З 5 50 км ясно +8.1 +7.2 94 +4 +4 по сезону 1013.1 1006.5
02 14.09 З 5 50 км ясно +7.9 +7.2 95 +4 +4 по сезону 1013.4 1006.8
03 14.09 З 5-6
{6}
50 км 1/0 1000 м
[]
+7.8 +7.2 96 +4 +4 прохладно 1013.8 1007.3
04 14.09 З 4 50 км ясно +7.5 +7.1 97 +4 +4 по сезону 1014.0 1007.4
05 14.09 З 4-6
{6}
50 км ясно +8.2 +7.4 95 +5 +5 по сезону 1014.2 1007.6
06 14.09 З 5-6
{7}
50 км 1/1 600 м
[Sc]
+9.8 +7.5 86 +7 +7 по сезону 1014.5 1007.9 +7.3 +10.4
07 14.09 З 7-9
{10}
50 км ясно +11.2 +7.8 80 +8 +9 по сезону 1014.6 1008.1
08 14.09 З 8-14
{14}
50 км 4/4 600 м
[]
+12.2 +7.5 73 +9 +10 по сезону 1014.6 1008.2
09 14.09 СЗ 8-12
{14}
50 км 5/0 600 м
[]
+13.2 +6.0 62 +11 +11 по сезону 1015.0 1008.6
10 14.09 З 9 50 км 8/8 1000 м
[]
+12.5 +5.9 64 +9 +9 по сезону 1015.1 1008.6
11 14.09 З 3 50 км слаб. ливневой дождь 6/6 600 м
[]
+10.9 +9.7 92 +9 +11 прохладно 1015.2 1008.7
12 14.09 З 7-9
{9}
50 км в посл. час ливневой дождь 8/0 600 м
[Ac cuf Ci ing]
+12.6 +8.2 75 +10 +11 прохладно 1015.1 1008.6 0.4
13 14.09 З 8-10
{13}
50 км 1/0 1000 м
[]
+12.1 +6.2 67 +9 +10 по сезону 1015.2 1008.8
14 14.09 СЗ 4 50 км 4/4 600 м
[]
+13.3 +6.8 65 +12 +13 тепло 1015.1 1008.6
15 14.09 З 4-5
{15}
50 км в посл. час ливневой дождь 5/3 600 м
[Ac cuf Ci ing]
+12.5 +7.6 72 +11 +11 по сезону 1015.1 1008.6
16 14.09 З 6 50 км 6/6 1500 м
[]
+12.4 +5.4 62 +10 +10 тепло 1015.3 1008.8
17 14.09 З 3-6
{7}
50 км 5/0 1500 м
[]
+9.9 +5.4 74 +8 +8 по сезону 1015.6 1009.1
18 14.09 З 4-6
{7}
50 км 5/5 1000 м
[]
+9.7 +5.0 73 +7 +7 по сезону 1016.0 1009.5 +9.7 +14.5 1
19 14.09 З 4 50 км ясно +8.5 +5.5 81 +5 +5 по сезону 1015.9 1009.4
20 14.09 З 3-4
{5}
50 км ясно +7.3 +5.6 89 +4 +4 по сезону 1015.8 1009.2
21 14.09 З 3-4
{4}
50 км ясно +6.3 +5.7 96 +3 +3 прохладно 1015.3 1008.7
22 14.09 ЮЗ 3 50 км ясно +5.8 +5.7 99 +2 +2 по сезону 1014.7 1008.1
23 14.09 ЮЗ 2 50 км ясно +5.4 +5.4 100 +3 +3 по сезону 1013.6 1007.0
00 15.09 ЮВ 1-2
{3}
50 км 6/0 1500 м
[Cs]
+4.5 +4.4 99 +3 +3 прохладно 1012.5 1005.9
01 15.09 ЮВ 1-2
{2}
50 км 6/0
[]
+5.0 +5.0 100 +3 +3 по сезону 1011.3 1004.7
02 15.09 ЮВ 4 50 км 10/10
[]
+8.3 +8.0 98 +5 +5 по сезону 1009.3 1002.8
03 15.09 Ю 4-6
{8}
15 км слаб. дождь 10/0 600 м
[]
+8.9 +8.7 99 +6 +6 по сезону 1007.4 1000.8 0.4
04 15.09 ЮВ 3-5
{6}
10 км дождь 10/10 200 м
[]
+9.3 +9.3 100 +7 +7 тепло 1005.3 998.8 1
05 15.09 ЮЗ 4-8
{10}
14 км слаб. дождь 10/10 100 м
[]
+9.8 +9.8 100 +7 +7 по сезону 1003.1 996.7 4
06 15.09 Ю 5-7
{7}
12 км слаб. дождь 10/10 200 м
[]
+10.1 +10.1 100 +7 +7 по сезону 1000.7 994.3 +4.2 +10.1 7
07 15.09 Ю 6-9
{9}
15 км слаб. дождь 10/0 200 м
[]
+10.4 +10.4 100 +7 +7 по сезону 998.9 992.5 2
08 15.09 Ю 5 13 км дождь 10/10 300 м
[]
+10.7 +10.7 100 +8 +8 по сезону 996.5 990.1
09 15.09 ЮЗ 6-9
{9}
20 км слаб. дождь 10/0 200 м
[]
+11.7 +11.7 100 +9 +10 по сезону 993.9 987.6 0.9
10 15.09 ЮЗ 5 40 км слаб. ливневой дождь 10/10 200 м
[]
+12.0 +12.0 100 +9 +9 по сезону 992.5 986.2
11 15.09 ЮЗ 6 27 км слаб. ливневой дождь 9/9 300 м
[]
+12.3 +12.3 100 +9 +10 по сезону 991.1 984.8
12 15.09 ЮЗ 6-8
{8}
10 км слаб. ливневой дождь 9/0 200 м
[]
+12.4 +12.4 100 +10 +11 по сезону 989.3 983.0
13 15.09 З 8-13
{14}
22 км слаб. ливневой дождь 10/10 300 м
[]
+12.5 +12.5 100 +9 +9 по сезону 988.9 982.6 2
14 15.09 З 9-8
{13}
30 км ливневой дождь 10/0 600 м
[]
+10.9 +9.9 94 +7 +7 по сезону 988.9 982.5 0.5
15 15.09 З 7-10
{11}
50 км {ливн. осадки} ясно +11.3 +10.0 92 +8 +8 прохладно 988.9 982.6 0.1
16 15.09 З 6 50 км слаб. ливневой дождь 9/9 600 м
[]
+11.3 +11.0 98 +8 +8 тепло 989.1 982.7
17 15.09 ЮЗ 6-8
{9}
50 км ясно +10.8 +10.6 99 +7 +7 по сезону 989.6 983.2
18 15.09 З 6-10
{10}
50 км {ливн. осадки} 3/1 600 м
[Sc diur, vesp Ci fib]
+10.3 +9.2 93 +7 +7 по сезону 990.2 983.8 +10.0 +13.1 6
19 15.09 З 5 50 км ясно +9.5 +9.0 97 +6 +6 тепло 990.2 983.8

 

Местоположение метеостанции Хельсинки (Финляндия): широта 60.33 долгота 24.96 высота над уровнем моря 51 м.

В архиве по умолчанию представлена погода в Хельсинки за последнюю неделю. Архивные данные за месяц целиком и за предыдущие месяцы, начиная с января 2011 года, Вы можете получить, выбрав интересующий диапазон дат из раскрывающегося списка и нажав кнопку "Ввод!".


*Определитесь, кто Вы:
робот инопланетянин человек

Внимание! Время в таблицах - всемирное. Для получения местного времени необходимо прибавить поправку, которая равна 1 ч.

Смотрите также архив погоды в соседних городах и на ближайших метеорологических станциях:

Погода в Хельсинки университете (Финляндия) (14 км)
Погода в Хельсинки Кайсаниеми (Финляндия) (17 км)
Погода в Эспо Тапиола (Финляндия) (19 км)
Погода в Эспо Нууксио (Финляндия) (22 км)
Погода на Острове Хармая (Финляндия) (26 км)
Погода в Нурмиярви (Финляндия) (26 км)
Погода в Хювинкяа (Финляндия) (31 км)
Погода в Вихти (Финляндия) (32 км)
Погода в Килпилахти (Финляндия) (33 км)
Погода на Острове Синго (Финляндия) (36 км)

Пояснения к столбцам:

Ветер - указаны скорость ветра в м/с - средняя за 10 мин, порывы в срок и между сроками (в фигурных скобках) и направление, откуда дует ветер: С - северный, СВ - северо-восточный, В - восточный, ЮВ - юго-восточный, Ю - южный, ЮЗ - юго-западный, З - западный, СЗ - северо-западный.
Видимость - горизонтальная дальность видимости в метрах или километрах. При видимости от 1 до 10 км при отсутствии осадков обычно наблюдается дымка, при ухудшении видимости до 1 км и менее - туман. В сухую погоду видимость может ухудшаться дымом, пылью или мглою.
Явления - указаны атмосферные явления, наблюдавшиеся в срок или в последний час перед сроком; фигурными скобками обозначены явления, наблюдавшиеся между сроками (за 1-3 часа до срока); квадратными скобками обозначены град или гололедные отложения с указанием их диаметра в мм.
Облачность - указаны через наклонную черту общая и нижняя облачность в баллах и высота нижней границы облаков в метрах; квадратными скобками обозначены формы облаков: Ci - перистые, Cs - перисто-слоистые, Cc - перисто-кучевые, Ac - высококучевые, As - высокослоистые, Sc - слоисто-кучевые, Ns - слоисто-дождевые, Cu - кучевые, Cb - кучево-дождевые. Подробнее классификацию облаков см. в Атласе облаков (PDF).
T - Температура воздуха - температура, измеренная на высоте 2 м над землей.
Td - Температура точки росы - температура, при понижении до которой содержащийся в воздухе водяной пар достигнет насыщения.
f - Относительная влажность воздуха - влажноcть воздуха, измеренная на высоте 2 м над землей.
Te - Эффективная температура - температура, которую ощущает одетый по сезону человек в тени. Характеристика душности погоды. При расчете учитывается влияние влажности воздуха и скорости ветра на теплоощущения человека.
Tes - Эффективная температура на солнце - температура, которую ощущает человек, с поправкой на солнечный нагрев. Характеристика знойности погоды. Зависит от высоты солнца над горизонтом, облачности и скорости ветра. Ночью, в пасмурную погоду, а также при ветре 12 м/с и более поправка равна нулю.
P - Атмосферное давление - приведенное к уровню моря атмосферное давление.
Po - Атмосферное давление - измеренное на уровне метеостанции атмосферное давление.
Tmin - Минимальная температура - минимум температуры воздуха на высоте 2 м над землей.
Tmax - Максимальная температура - максимум температуры воздуха на высоте 2 м над землей.
R - Количество осадков - Количество выпавших осадков за период времени, мм. При наведении курсора мыши на число - период времени, за который выпало указанное количество осадков.
R24 - Количество осадков - Количество выпавших осадков за 24 часа, мм.
S - Снежный покров - Высота снежного покрова, см. При наведении курсора мыши на число - состояние снежного покрова и степень покрытия местности в баллах.